Time,TemperatureF,DewpointF,PressureIn,WindDirection,WindDirectionDegrees,WindSpeedMPH,WindSpeedGustMPH,Humidity,HourlyPrecipIn,Conditions,Clouds,dailyrainin,SolarRadiationWatts/m^2,SoftwareType,DateUTC
2013-02-24 00:01:00,43.3,42.8,29.83,SSW,200,0.0,0.0,98,0.00,OVC,,0.00,0.0,WeatherDisplay:10.37,2013-02-24 05:01:00,
2013-02-24 00:06:00,43.3,42.8,29.83,SSW,200,0.0,0.0,98,0.00,OVC,,0.00,0.0,WeatherDisplay:10.37,2013-02-24 05:06:00,
2013-02-24 00:11:00,43.3,42.8,29.83,SSW,200,0.0,0.0,98,0.00,OVC,,0.00,0.0,WeatherDisplay:10.37,2013-02-24 05:11:00,
2013-02-24 00:16:00,43.2,42.7,29.83,SSW,200,0.0,0.0,98,0.00,OVC,,0.00,0.0,WeatherDisplay:10.37,2013-02-24 05:16:00,
2013-02-24 00:21:00,43.2,42.7,29.84,SSW,200,0.0,0.0,98,0.00,OVC,,0.00,0.0,WeatherDisplay:10.37,2013-02-24 05:21:00,
2013-02-24 00:26:00,43.3,42.8,29.83,SSW,200,0.0,0.0,98,0.00,OVC,,0.00,0.0,WeatherDisplay:10.37,2013-02-24 05:26:00,
2013-02-24 00:31:00,43.3,42.8,29.84,SSW,200,0.0,0.0,98,0.00,OVC,,0.00,0.0,WeatherDisplay:10.37,2013-02-24 05:31:00,
2013-02-24 00:36:00,43.3,42.8,29.84,South,190,0.0,1.0,98,0.00,OVC,,0.00,0.0,WeatherDisplay:10.37,2013-02-24 05:36:00,
2013-02-24 00:41:00,43.3,42.8,29.85,South,180,0.0,0.0,98,0.00,OVC,,0.00,0.0,WeatherDisplay:10.37,2013-02-24 05:41:00,
2013-02-24 00:46:00,43.3,42.8,29.84,South,180,0.0,0.0,98,0.00,OVC,,0.00,0.0,WeatherDisplay:10.37,2013-02-24 05:46:00,
2013-02-24 00:51:00,43.3,42.8,29.84,South,180,0.0,0.0,98,0.00,OVC,,0.00,0.0,WeatherDisplay:10.37,2013-02-24 05:51:00,
2013-02-24 00:56:00,43.3,42.8,29.84,South,180,0.0,0.0,98,0.00,OVC,,0.00,0.0,WeatherDisplay:10.37,2013-02-24 05:56:00,
2013-02-24 01:01:00,43.3,42.8,29.84,South,180,0.0,0.0,98,0.00,OVC,,0.00,0.0,WeatherDisplay:10.37,2013-02-24 06:01:00,
2013-02-24 01:11:00,43.3,42.8,29.83,South,187,0.0,2.0,98,0.00,OVC,,0.00,0.0,WeatherDisplay:10.37,2013-02-24 06:11:00,
2013-02-24 01:16:00,43.3,42.8,29.83,SSW,192,0.0,0.0,98,0.00,OVC,,0.00,0.0,WeatherDisplay:10.37,2013-02-24 06:16:00,
2013-02-24 01:21:00,43.3,42.8,29.83,South,187,0.0,0.0,98,0.00,OVC,,0.00,0.0,WeatherDisplay:10.37,2013-02-24 06:21:00,
2013-02-24 01:26:00,43.3,42.8,29.83,South,184,0.0,0.0,98,0.00,OVC,,0.00,0.0,WeatherDisplay:10.37,2013-02-24 06:26:00,
2013-02-24 01:31:00,43.3,42.8,29.82,South,184,0.0,0.0,98,0.00,OVC,,0.00,0.0,WeatherDisplay:10.37,2013-02-24 06:31:00,
2013-02-24 01:36:00,43.3,42.8,29.82,South,184,0.0,0.0,98,0.00,OVC,,0.00,0.0,WeatherDisplay:10.37,2013-02-24 06:36:00,
2013-02-24 01:41:00,43.3,42.8,29.83,South,184,0.0,0.0,98,0.00,OVC,,0.00,0.0,WeatherDisplay:10.37,2013-02-24 06:41:00,
2013-02-24 01:46:00,43.3,42.8,29.83,South,184,0.0,0.0,98,0.00,OVC,,0.00,0.0,WeatherDisplay:10.37,2013-02-24 06:46:00,
2013-02-24 01:51:00,43.3,42.8,29.83,South,184,0.0,0.0,98,0.00,OVC,,0.00,0.0,WeatherDisplay:10.37,2013-02-24 06:51:00,
2013-02-24 01:56:00,43.4,42.8,29.82,South,184,0.0,0.0,98,0.00,OVC,,0.00,0.0,WeatherDisplay:10.37,2013-02-24 06:56:00,
2013-02-24 02:01:00,43.5,43.0,29.82,South,186,1.0,2.0,98,0.00,OVC,,0.00,0.0,WeatherDisplay:10.37,2013-02-24 07:01:00,
2013-02-24 02:11:00,43.5,43.0,29.81,South,190,0.0,0.0,98,0.00,OVC,,0.00,0.0,WeatherDisplay:10.37,2013-02-24 07:11:00,
2013-02-24 02:16:00,43.5,43.0,29.81,South,190,0.0,0.0,98,0.00,OVC,,0.00,0.0,WeatherDisplay:10.37,2013-02-24 07:16:00,
2013-02-24 02:21:00,43.5,43.0,29.81,South,190,0.0,0.0,98,0.00,OVC,,0.00,0.0,WeatherDisplay:10.37,2013-02-24 07:21:00,
2013-02-24 02:26:00,43.5,42.9,29.81,South,190,0.0,0.0,98,0.00,OVC,,0.00,0.0,WeatherDisplay:10.37,2013-02-24 07:26:00,
2013-02-24 02:31:00,43.5,43.0,29.81,South,190,0.0,0.0,98,0.00,OVC,,0.00,0.0,WeatherDisplay:10.37,2013-02-24 07:31:00,
2013-02-24 02:36:00,43.4,42.9,29.80,SSW,213,0.0,1.0,98,0.00,OVC,,0.00,0.0,WeatherDisplay:10.37,2013-02-24 07:36:00,
2013-02-24 02:41:00,43.4,42.9,29.80,SW,228,0.0,0.0,98,0.00,OVC,,0.00,0.0,WeatherDisplay:10.37,2013-02-24 07:41:00,
2013-02-24 02:46:00,43.3,42.8,29.80,SW,229,1.0,3.0,98,0.00,OVC,,0.00,0.0,WeatherDisplay:10.37,2013-02-24 07:46:00,
2013-02-24 02:51:00,43.5,42.9,29.79,SW,230,0.0,0.0,98,0.00,OVC,,0.00,0.0,WeatherDisplay:10.37,2013-02-24 07:51:00,
2013-02-24 02:56:00,43.5,42.9,29.79,SW,231,0.0,0.0,98,0.00,OVC,,0.00,0.0,WeatherDisplay:10.37,2013-02-24 07:56:00,
2013-02-24 03:01:00,43.5,43.0,29.79,WSW,238,0.0,2.0,98,0.00,OVC,,0.00,0.0,WeatherDisplay:10.37,2013-02-24 08:01:00,
2013-02-24 03:11:00,43.5,43.0,29.80,WSW,244,0.0,1.0,98,0.00,OVC,,0.00,0.0,WeatherDisplay:10.37,2013-02-24 08:11:00,
2013-02-24 03:16:00,43.5,43.0,29.80,WSW,244,0.0,0.0,98,0.00,OVC,,0.00,0.0,WeatherDisplay:10.37,2013-02-24 08:16:00,
2013-02-24 03:21:00,43.5,43.0,29.80,WSW,244,0.0,0.0,98,0.00,OVC,,0.00,0.0,WeatherDisplay:10.37,2013-02-24 08:21:00,
2013-02-24 03:26:00,43.5,43.0,29.80,WSW,253,1.0,4.0,98,0.00,OVC,,0.00,0.0,WeatherDisplay:10.37,2013-02-24 08:26:00,
2013-02-24 03:31:00,43.5,43.0,29.80,West,264,0.0,1.0,98,0.00,OVC,,0.00,0.0,WeatherDisplay:10.37,2013-02-24 08:31:00,
2013-02-24 03:36:00,43.5,43.0,29.78,West,266,0.0,1.0,98,0.00,OVC,,0.00,0.0,WeatherDisplay:10.37,2013-02-24 08:36:00,
2013-02-24 03:41:00,43.5,43.0,29.79,West,273,1.0,2.0,98,0.00,OVC,,0.00,0.0,WeatherDisplay:10.37,2013-02-24 08:41:00,
2013-02-24 03:46:00,43.5,43.0,29.80,WNW,284,0.0,2.0,98,0.01,RA,,0.01,0.0,WeatherDisplay:10.37,2013-02-24 08:46:00,
2013-02-24 03:51:00,43.5,43.0,29.79,West,271,0.0,2.0,98,0.01,RA,,0.01,0.0,WeatherDisplay:10.37,2013-02-24 08:51:00,
2013-02-24 03:56:00,43.5,43.0,29.80,West,265,0.0,0.0,98,0.01,OVC,,0.01,0.0,WeatherDisplay:10.37,2013-02-24 08:56:00,
2013-02-24 04:01:00,43.6,43.1,29.80,West,265,0.0,0.0,98,0.01,OVC,,0.01,0.0,WeatherDisplay:10.37,2013-02-24 09:01:00,
2013-02-24 04:11:00,43.6,43.1,29.80,West,263,0.0,0.0,98,0.02,RA,,0.02,0.0,WeatherDisplay:10.37,2013-02-24 09:11:00,
2013-02-24 04:16:00,43.6,43.1,29.80,West,263,0.0,2.0,98,0.02,RA,,0.02,0.0,WeatherDisplay:10.37,2013-02-24 09:16:00,
2013-02-24 04:21:00,43.8,43.3,29.80,West,263,0.0,1.0,98,0.02,OVC,,0.02,0.0,WeatherDisplay:10.37,2013-02-24 09:21:00,
2013-02-24 04:26:00,43.8,43.3,29.79,West,263,0.0,2.0,98,0.02,OVC,,0.02,0.0,WeatherDisplay:10.37,2013-02-24 09:26:00,
2013-02-24 04:31:00,43.8,43.3,29.79,West,263,0.0,0.0,98,0.02,OVC,,0.02,0.0,WeatherDisplay:10.37,2013-02-24 09:31:00,
2013-02-24 04:36:00,43.8,43.3,29.79,West,263,0.0,0.0,98,0.02,OVC,,0.02,0.0,WeatherDisplay:10.37,2013-02-24 09:36:00,
2013-02-24 04:41:00,43.8,43.3,29.80,West,263,0.0,0.0,98,0.02,OVC,,0.02,0.0,WeatherDisplay:10.37,2013-02-24 09:41:00,
2013-02-24 04:46:00,43.8,43.3,29.80,West,263,0.0,2.0,98,0.01,OVC,,0.02,0.0,WeatherDisplay:10.37,2013-02-24 09:46:00,
2013-02-24 04:51:00,43.9,43.4,29.80,West,263,0.0,0.0,98,0.01,OVC,,0.02,0.0,WeatherDisplay:10.37,2013-02-24 09:51:00,
2013-02-24 04:56:00,43.9,43.4,29.80,West,263,0.0,0.0,98,0.01,OVC,,0.02,0.0,WeatherDisplay:10.37,2013-02-24 09:56:00,
2013-02-24 05:01:00,43.9,43.4,29.80,West,263,0.0,0.0,98,0.01,OVC,,0.02,0.0,WeatherDisplay:10.37,2013-02-24 10:01:00,
2013-02-24 05:11:00,43.9,43.4,29.80,West,263,0.0,0.0,98,0.00,OVC,,0.02,0.0,WeatherDisplay:10.37,2013-02-24 10:11:00,
2013-02-24 05:16:00,43.9,43.4,29.81,West,263,0.0,0.0,98,0.00,OVC,,0.02,0.0,WeatherDisplay:10.37,2013-02-24 10:16:00,
2013-02-24 05:21:00,43.9,43.4,29.81,West,263,0.0,0.0,98,0.00,OVC,,0.02,0.0,WeatherDisplay:10.37,2013-02-24 10:21:00,
2013-02-24 05:26:00,44.0,43.5,29.81,West,263,0.0,0.0,98,0.00,OVC,,0.02,0.0,WeatherDisplay:10.37,2013-02-24 10:26:00,
2013-02-24 05:31:00,44.1,43.6,29.81,West,263,0.0,0.0,98,0.00,OVC,,0.02,0.0,WeatherDisplay:10.37,2013-02-24 10:31:00,
2013-02-24 05:36:00,44.1,43.6,29.81,WSW,250,0.0,1.0,98,0.00,OVC,,0.02,0.0,WeatherDisplay:10.37,2013-02-24 10:36:00,
2013-02-24 05:41:00,44.1,43.6,29.81,WSW,238,1.0,3.0,98,0.00,OVC,,0.02,0.0,WeatherDisplay:10.37,2013-02-24 10:41:00,
2013-02-24 05:46:00,44.2,43.7,29.82,WSW,249,0.0,2.0,98,0.00,OVC,,0.02,0.0,WeatherDisplay:10.37,2013-02-24 10:46:00,
2013-02-24 05:51:00,44.2,43.7,29.82,WSW,256,0.0,1.0,98,0.00,OVC,,0.02,0.0,WeatherDisplay:10.37,2013-02-24 10:51:00,
2013-02-24 05:56:00,44.2,43.7,29.83,WSW,252,0.0,3.0,98,0.00,OVC,,0.02,0.0,WeatherDisplay:10.37,2013-02-24 10:56:00,
2013-02-24 06:01:00,44.3,43.7,29.83,WSW,252,0.0,2.0,98,0.00,OVC,,0.02,0.0,WeatherDisplay:10.37,2013-02-24 11:01:00,
2013-02-24 06:11:00,44.3,43.8,29.83,WSW,255,0.0,3.0,98,0.00,OVC,,0.02,0.0,WeatherDisplay:10.37,2013-02-24 11:11:00,
2013-02-24 06:16:00,44.3,43.8,29.83,WSW,257,0.0,3.0,98,0.00,OVC,,0.02,0.0,WeatherDisplay:10.37,2013-02-24 11:16:00,
2013-02-24 06:21:00,44.3,43.8,29.83,West,259,0.0,1.0,98,0.00,OVC,,0.02,0.0,WeatherDisplay:10.37,2013-02-24 11:21:00,
2013-02-24 06:26:00,44.3,43.8,29.83,West,259,0.0,1.0,98,0.00,OVC,,0.02,0.0,WeatherDisplay:10.37,2013-02-24 11:26:00,
2013-02-24 06:31:00,44.3,43.8,29.83,West,259,0.0,2.0,98,0.00,OVC,,0.02,0.0,WeatherDisplay:10.37,2013-02-24 11:31:00,
2013-02-24 06:36:00,44.3,43.8,29.83,West,261,0.0,2.0,98,0.00,OVC,,0.02,0.0,WeatherDisplay:10.37,2013-02-24 11:36:00,
2013-02-24 06:41:00,44.5,44.0,29.83,West,259,1.0,3.0,98,0.00,OVC,,0.02,0.0,WeatherDisplay:10.37,2013-02-24 11:41:00,
2013-02-24 06:46:00,44.5,44.0,29.83,WSW,253,0.0,0.0,98,0.00,OVC,,0.02,0.0,WeatherDisplay:10.37,2013-02-24 11:46:00,
2013-02-24 06:51:00,44.5,44.0,29.84,WSW,250,0.0,0.0,98,0.00,OVC,,0.02,0.0,WeatherDisplay:10.37,2013-02-24 11:51:00,
2013-02-24 06:56:00,44.5,44.0,29.84,WSW,250,0.0,0.0,98,0.00,OVC,,0.02,0.0,WeatherDisplay:10.37,2013-02-24 11:56:00,
2013-02-24 07:01:00,44.5,44.0,29.85,West,263,0.0,0.0,98,0.00,OVC,,0.02,0.0,WeatherDisplay:10.37,2013-02-24 12:01:00,
2013-02-24 07:11:00,44.5,44.0,29.85,WNW,289,0.0,0.0,98,0.00,OVC,,0.02,8.0,WeatherDisplay:10.37,2013-02-24 12:11:00,
2013-02-24 07:16:00,44.5,44.0,29.85,West,277,0.0,0.0,98,0.00,OVC,,0.02,12.6,WeatherDisplay:10.37,2013-02-24 12:16:00,
2013-02-24 07:21:00,44.5,44.0,29.85,West,269,0.0,0.0,98,0.00,OVC,,0.02,20.7,WeatherDisplay:10.37,2013-02-24 12:21:00,
2013-02-24 07:26:00,44.5,44.0,29.85,West,269,0.0,0.0,98,0.00,OVC,,0.02,21.8,WeatherDisplay:10.37,2013-02-24 12:26:00,
2013-02-24 07:31:00,44.5,44.0,29.86,West,269,0.0,0.0,98,0.00,SCT,,0.02,29.9,WeatherDisplay:10.37,2013-02-24 12:31:00,
2013-02-24 07:41:00,44.5,44.0,29.86,West,269,0.0,0.0,98,0.00,SCT,,0.02,28.7,WeatherDisplay:10.37,2013-02-24 12:41:00,
2013-02-24 07:51:00,44.5,44.0,29.87,West,266,1.0,5.0,98,0.00,SCT,,0.02,40.3,WeatherDisplay:10.37,2013-02-24 12:51:00,
2013-02-24 08:01:00,44.6,44.0,29.88,WNW,294,1.0,5.0,98,0.00,FEW,,0.02,52.9,WeatherDisplay:10.37,2013-02-24 13:01:00,
2013-02-24 08:11:00,44.6,44.1,29.88,WSW,255,0.0,3.0,98,0.00,FEW,,0.02,50.6,WeatherDisplay:10.37,2013-02-24 13:11:00,
2013-02-24 08:16:00,44.6,44.1,29.89,WSW,252,0.0,2.0,98,0.00,FEW,,0.02,79.4,WeatherDisplay:10.37,2013-02-24 13:16:00,
2013-02-24 08:21:00,44.8,44.3,29.89,WSW,247,1.0,2.0,98,0.00,FEW,,0.02,104.7,WeatherDisplay:10.37,2013-02-24 13:21:00,
2013-02-24 08:26:00,44.9,44.4,29.90,WSW,246,0.0,0.0,98,0.00,FEW,,0.02,69.0,WeatherDisplay:10.37,2013-02-24 13:26:00,
2013-02-24 08:31:00,44.9,44.4,29.91,WSW,252,0.0,3.0,98,0.00,FEW,,0.02,129.9,WeatherDisplay:10.37,2013-02-24 13:31:00,
2013-02-24 08:36:00,45.1,44.6,29.91,West,262,1.0,2.0,98,0.00,FEW,,0.02,103.5,WeatherDisplay:10.37,2013-02-24 13:36:00,
2013-02-24 08:41:00,45.2,44.7,29.91,West,262,0.0,3.0,98,0.00,FEW,,0.02,141.4,WeatherDisplay:10.37,2013-02-24 13:41:00,
2013-02-24 08:46:00,45.2,44.7,29.91,WSW,256,1.0,4.0,98,0.00,FEW,,0.02,138.0,WeatherDisplay:10.37,2013-02-24 13:46:00,
2013-02-24 08:56:00,45.5,45.0,29.91,West,268,1.0,4.0,98,0.00,FEW,,0.02,82.8,WeatherDisplay:10.37,2013-02-24 13:56:00,
2013-02-24 09:01:00,45.5,45.0,29.91,WNW,283,0.0,4.0,98,0.00,FEW,,0.02,62.1,WeatherDisplay:10.37,2013-02-24 14:01:00,
2013-02-24 09:11:00,45.8,45.5,29.92,WNW,294,0.0,3.0,99,0.00,FEW,,0.02,62.1,WeatherDisplay:10.37,2013-02-24 14:11:00,
2013-02-24 09:16:00,46.0,45.7,29.91,WNW,293,0.0,0.0,99,0.00,FEW,,0.02,58.7,WeatherDisplay:10.37,2013-02-24 14:16:00,
2013-02-24 09:31:00,46.5,46.2,29.92,West,259,0.0,3.0,99,0.00,FEW,,0.02,62.1,WeatherDisplay:10.37,2013-02-24 14:31:00,
2013-02-24 09:36:00,46.8,46.5,29.92,West,264,0.0,4.0,99,0.00,FEW,,0.02,58.7,WeatherDisplay:10.37,2013-02-24 14:36:00,
2013-02-24 09:41:00,47.0,46.8,29.92,West,273,2.0,5.0,99,0.00,FEW,,0.02,61.0,WeatherDisplay:10.37,2013-02-24 14:41:00,
2013-02-24 09:46:00,47.3,47.0,29.92,West,271,0.0,4.0,99,0.00,FEW,,0.02,61.0,WeatherDisplay:10.37,2013-02-24 14:46:00,
2013-02-24 09:51:00,47.4,47.2,29.92,West,259,1.0,4.0,99,0.00,FEW,,0.02,58.7,WeatherDisplay:10.37,2013-02-24 14:51:00,
2013-02-24 09:56:00,47.9,47.6,29.92,WSW,255,1.0,2.0,99,0.00,FEW,,0.02,58.7,WeatherDisplay:10.37,2013-02-24 14:56:00,
2013-02-24 10:01:00,48.3,48.0,29.92,WNW,297,2.0,5.0,99,0.00,CLR,,0.02,56.4,WeatherDisplay:10.37,2013-02-24 15:01:00,
2013-02-24 10:06:00,48.3,48.0,29.92,North,6,0.0,5.0,99,0.00,CLR,,0.02,58.7,WeatherDisplay:10.37,2013-02-24 15:06:00,
2013-02-24 10:16:00,48.9,48.6,29.92,NW,315,0.0,5.0,99,0.00,CLR,,0.02,154.1,WeatherDisplay:10.37,2013-02-24 15:16:00,
2013-02-24 10:26:00,49.9,49.6,29.92,West,280,5.0,6.0,99,0.00,CLR,,0.02,655.5,WeatherDisplay:10.37,2013-02-24 15:26:00,
2013-02-24 10:31:00,50.6,49.8,29.92,WNW,295,0.0,6.0,97,0.00,CLR,,0.02,672.8,WeatherDisplay:10.37,2013-02-24 15:31:00,
2013-02-24 10:36:00,51.5,49.8,29.92,NW,314,2.0,6.0,94,0.00,CLR,,0.02,687.7,WeatherDisplay:10.37,2013-02-24 15:36:00,
2013-02-24 10:41:00,52.0,48.2,29.92,North,9,2.0,5.0,87,0.00,CLR,,0.02,701.5,WeatherDisplay:10.37,2013-02-24 15:41:00,
2013-02-24 10:51:00,53.9,47.9,29.93,North,350,0.0,5.0,80,0.00,CLR,,0.02,723.4,WeatherDisplay:10.37,2013-02-24 15:51:00,
2013-02-24 10:56:00,54.9,46.4,29.93,WNW,292,2.0,6.0,73,0.00,CLR,,0.02,739.4,WeatherDisplay:10.37,2013-02-24 15:56:00,
2013-02-24 11:01:00,55.4,45.0,29.93,West,275,3.0,6.0,68,0.00,FEW,,0.02,749.8,WeatherDisplay:10.37,2013-02-24 16:01:00,
2013-02-24 11:11:00,56.5,46.4,29.93,NW,315,2.0,5.0,69,0.00,FEW,,0.02,768.2,WeatherDisplay:10.37,2013-02-24 16:11:00,
2013-02-24 11:16:00,56.9,46.1,29.93,WNW,299,2.0,7.0,67,0.00,FEW,,0.02,776.2,WeatherDisplay:10.37,2013-02-24 16:16:00,
2013-02-24 11:21:00,57.0,44.9,29.93,WNW,292,3.0,6.0,64,0.00,FEW,,0.02,786.6,WeatherDisplay:10.37,2013-02-24 16:21:00,
2013-02-24 11:26:00,57.0,44.9,29.93,NW,308,1.0,6.0,64,0.00,FEW,,0.02,798.1,WeatherDisplay:10.37,2013-02-24 16:26:00,
2013-02-24 11:31:00,57.0,43.7,29.92,NW,310,3.0,6.0,61,0.00,FEW,,0.02,796.9,WeatherDisplay:10.37,2013-02-24 16:31:00,
2013-02-24 11:36:00,57.2,43.9,29.92,WNW,287,2.0,5.0,61,0.00,FEW,,0.02,810.7,WeatherDisplay:10.37,2013-02-24 16:36:00,
2013-02-24 11:41:00,57.6,46.0,29.92,NW,305,1.0,5.0,65,0.00,FEW,,0.02,813.1,WeatherDisplay:10.37,2013-02-24 16:41:00,
2013-02-24 11:46:00,57.8,44.5,29.92,NW,314,2.0,6.0,61,0.00,FEW,,0.02,818.8,WeatherDisplay:10.37,2013-02-24 16:46:00,
2013-02-24 11:51:00,58.1,44.3,29.92,WNW,299,2.0,5.0,60,0.00,FEW,,0.02,818.8,WeatherDisplay:10.37,2013-02-24 16:51:00,
2013-02-24 11:56:00,58.3,44.5,29.92,North,350,2.0,6.0,60,0.00,FEW,,0.02,814.2,WeatherDisplay:10.37,2013-02-24 16:56:00,
2013-02-24 12:01:00,58.5,44.7,29.92,NNW,332,2.0,5.0,60,0.00,FEW,,0.02,749.8,WeatherDisplay:10.37,2013-02-24 17:01:00,
2013-02-24 12:11:00,58.7,43.5,29.92,NNW,330,1.0,4.0,57,0.00,FEW,,0.02,648.6,WeatherDisplay:10.37,2013-02-24 17:11:00,
2013-02-24 12:16:00,58.9,42.8,29.92,WSW,254,3.0,6.0,55,0.00,FEW,,0.02,680.8,WeatherDisplay:10.37,2013-02-24 17:16:00,
2013-02-24 12:21:00,59.0,42.8,29.92,West,276,3.0,8.0,55,0.00,FEW,,0.02,770.5,WeatherDisplay:10.37,2013-02-24 17:21:00,
2013-02-24 12:26:00,59.4,43.6,29.92,WNW,301,1.0,6.0,56,0.00,FEW,,0.02,830.3,WeatherDisplay:10.37,2013-02-24 17:26:00,
2013-02-24 12:31:00,59.5,41.3,29.92,NW,314,1.0,5.0,51,0.00,FEW,,0.02,838.4,WeatherDisplay:10.37,2013-02-24 17:31:00,
2013-02-24 12:36:00,59.9,41.7,29.92,West,266,2.0,7.0,51,0.00,FEW,,0.02,842.9,WeatherDisplay:10.37,2013-02-24 17:36:00,
2013-02-24 12:41:00,59.8,42.1,29.91,NNW,336,2.0,6.0,52,0.00,FEW,,0.02,834.9,WeatherDisplay:10.37,2013-02-24 17:41:00,
2013-02-24 12:46:00,59.6,41.9,29.91,NNE,15,2.0,5.0,52,0.00,FEW,,0.02,838.4,WeatherDisplay:10.37,2013-02-24 17:46:00,
2013-02-24 12:51:00,59.9,42.2,29.91,North,6,1.0,7.0,52,0.00,FEW,,0.02,824.6,WeatherDisplay:10.37,2013-02-24 17:51:00,
2013-02-24 12:56:00,60.5,43.3,29.91,NNW,345,2.0,5.0,53,0.00,FEW,,0.02,805.0,WeatherDisplay:10.37,2013-02-24 17:56:00,
2013-02-24 13:01:00,60.4,40.6,29.91,WNW,291,3.0,6.0,48,0.00,FEW,,0.02,778.6,WeatherDisplay:10.37,2013-02-24 18:01:00,
2013-02-24 13:11:00,60.5,42.3,29.90,NW,304,1.0,6.0,51,0.00,FEW,,0.02,695.8,WeatherDisplay:10.37,2013-02-24 18:11:00,
2013-02-24 13:16:00,60.7,41.9,29.90,NNW,337,2.0,6.0,50,0.00,FEW,,0.02,667.0,WeatherDisplay:10.37,2013-02-24 18:16:00,
2013-02-24 13:21:00,60.7,41.4,29.90,NW,324,3.0,6.0,49,0.00,FEW,,0.02,645.1,WeatherDisplay:10.37,2013-02-24 18:21:00,
2013-02-24 13:26:00,61.0,43.2,29.90,NW,317,1.0,4.0,52,0.00,FEW,,0.02,626.8,WeatherDisplay:10.37,2013-02-24 18:26:00,
2013-02-24 13:31:00,61.2,41.3,29.89,NW,321,2.0,6.0,48,0.00,FEW,,0.02,624.5,WeatherDisplay:10.37,2013-02-24 18:31:00,
2013-02-24 13:36:00,61.2,41.9,29.89,North,350,2.0,7.0,49,0.00,FEW,,0.02,629.1,WeatherDisplay:10.37,2013-02-24 18:36:00,
2013-02-24 13:41:00,61.2,41.3,29.89,North,6,1.0,7.0,48,0.00,FEW,,0.02,642.8,WeatherDisplay:10.37,2013-02-24 18:41:00,
2013-02-24 13:46:00,61.3,41.4,29.89,NW,316,2.0,6.0,48,0.00,FEW,,0.02,663.6,WeatherDisplay:10.37,2013-02-24 18:46:00,
2013-02-24 13:51:00,61.3,41.4,29.89,West,273,1.0,3.0,48,0.00,FEW,,0.02,688.8,WeatherDisplay:10.37,2013-02-24 18:51:00,
2013-02-24 13:56:00,61.5,41.6,29.89,WSW,256,2.0,5.0,48,0.00,FEW,,0.02,707.3,WeatherDisplay:10.37,2013-02-24 18:56:00,
2013-02-24 14:01:00,61.5,41.1,29.89,West,275,3.0,7.0,47,0.00,CLR,,0.02,723.4,WeatherDisplay:10.37,2013-02-24 19:01:00,
2013-02-24 14:11:00,61.3,40.3,29.89,WNW,289,2.0,6.0,46,0.00,CLR,,0.02,733.7,WeatherDisplay:10.37,2013-02-24 19:11:00,
2013-02-24 14:16:00,61.6,41.2,29.88,WNW,289,2.0,5.0,47,0.00,CLR,,0.02,722.2,WeatherDisplay:10.37,2013-02-24 19:16:00,
2013-02-24 14:21:00,61.6,40.1,29.88,West,278,2.0,5.0,45,0.00,CLR,,0.02,704.9,WeatherDisplay:10.37,2013-02-24 19:21:00,
2013-02-24 14:26:00,62.0,41.0,29.88,West,270,2.0,5.0,46,0.00,CLR,,0.02,707.3,WeatherDisplay:10.37,2013-02-24 19:26:00,
2013-02-24 14:31:00,62.2,40.6,29.88,WNW,289,1.0,5.0,45,0.00,CLR,,0.02,693.4,WeatherDisplay:10.37,2013-02-24 19:31:00,
2013-02-24 14:36:00,62.4,40.8,29.88,NNW,339,3.0,6.0,45,0.00,CLR,,0.02,671.6,WeatherDisplay:10.37,2013-02-24 19:36:00,
2013-02-24 14:41:00,62.3,41.2,29.88,NW,312,2.0,4.0,46,0.00,CLR,,0.02,664.7,WeatherDisplay:10.37,2013-02-24 19:41:00,
2013-02-24 14:46:00,62.4,40.8,29.88,WNW,287,2.0,5.0,45,0.00,CLR,,0.02,655.5,WeatherDisplay:10.37,2013-02-24 19:46:00,
2013-02-24 14:51:00,62.3,40.1,29.88,West,280,3.0,6.0,44,0.00,CLR,,0.02,638.3,WeatherDisplay:10.37,2013-02-24 19:51:00,
2013-02-24 14:56:00,62.4,40.8,29.88,West,274,2.0,5.0,45,0.00,CLR,,0.02,629.1,WeatherDisplay:10.37,2013-02-24 19:56:00,
2013-02-24 15:01:00,62.6,41.5,29.88,North,11,3.0,5.0,46,0.00,CLR,,0.02,614.1,WeatherDisplay:10.37,2013-02-24 20:01:00,
2013-02-24 15:11:00,62.6,39.8,29.88,WNW,291,2.0,6.0,43,0.00,CLR,,0.02,101.2,WeatherDisplay:10.37,2013-02-24 20:11:00,
2013-02-24 15:16:00,62.6,38.6,29.88,NNW,339,0.0,6.0,41,0.00,CLR,,0.02,56.4,WeatherDisplay:10.37,2013-02-24 20:16:00,
2013-02-24 15:21:00,62.6,41.5,29.88,NNW,333,1.0,5.0,46,0.00,CLR,,0.02,56.4,WeatherDisplay:10.37,2013-02-24 20:21:00,
2013-02-24 15:26:00,62.6,37.9,29.88,NNW,329,3.0,6.0,40,0.00,CLR,,0.02,103.5,WeatherDisplay:10.37,2013-02-24 20:26:00,
2013-02-24 15:31:00,62.4,37.1,29.88,NNW,345,3.0,7.0,39,0.00,CLR,,0.02,58.7,WeatherDisplay:10.37,2013-02-24 20:31:00,
2013-02-24 15:36:00,62.6,39.1,29.88,WNW,289,1.0,6.0,42,0.00,CLR,,0.02,88.6,WeatherDisplay:10.37,2013-02-24 20:36:00,
2013-02-24 15:41:00,62.4,37.1,29.89,WNW,288,3.0,7.0,39,0.00,CLR,,0.02,56.4,WeatherDisplay:10.37,2013-02-24 20:41:00,
2013-02-24 15:46:00,62.4,38.4,29.88,WNW,295,2.0,5.0,41,0.00,CLR,,0.02,50.6,WeatherDisplay:10.37,2013-02-24 20:46:00,
2013-02-24 15:51:00,62.3,37.0,29.88,NW,319,1.0,5.0,39,0.00,CLR,,0.02,58.7,WeatherDisplay:10.37,2013-02-24 20:51:00,
2013-02-24 15:56:00,62.3,36.4,29.89,WNW,290,2.0,6.0,38,0.00,CLR,,0.02,56.4,WeatherDisplay:10.37,2013-02-24 20:56:00,
2013-02-24 16:01:00,62.3,37.0,29.89,NW,306,1.0,5.0,39,0.00,FEW,,0.02,72.4,WeatherDisplay:10.37,2013-02-24 21:01:00,
2013-02-24 16:11:00,62.3,37.7,29.89,West,272,1.0,5.0,40,0.00,FEW,,0.02,80.5,WeatherDisplay:10.37,2013-02-24 21:11:00,
2013-02-24 16:16:00,62.3,35.7,29.89,West,259,1.0,4.0,37,0.00,FEW,,0.02,71.3,WeatherDisplay:10.37,2013-02-24 21:16:00,
2013-02-24 16:21:00,62.3,36.4,29.89,WNW,285,1.0,7.0,38,0.00,FEW,,0.02,90.8,WeatherDisplay:10.37,2013-02-24 21:21:00,
2013-02-24 16:26:00,62.3,35.7,29.89,West,281,1.0,4.0,37,0.00,FEW,,0.02,42.6,WeatherDisplay:10.37,2013-02-24 21:26:00,
2013-02-24 16:36:00,62.1,34.8,29.89,NW,323,2.0,5.0,36,0.00,FEW,,0.02,103.5,WeatherDisplay:10.37,2013-02-24 21:36:00,
2013-02-24 16:41:00,62.0,34.7,29.89,NW,324,0.0,4.0,36,0.00,FEW,,0.02,48.3,WeatherDisplay:10.37,2013-02-24 21:41:00,
2013-02-24 16:46:00,61.8,33.1,29.89,West,271,3.0,5.0,34,0.00,FEW,,0.02,40.3,WeatherDisplay:10.37,2013-02-24 21:46:00,
2013-02-24 16:51:00,61.6,31.4,29.89,West,269,2.0,6.0,32,0.00,FEW,,0.02,40.3,WeatherDisplay:10.37,2013-02-24 21:51:00,
2013-02-24 16:56:00,61.5,31.3,29.89,West,268,1.0,4.0,32,0.00,FEW,,0.02,37.9,WeatherDisplay:10.37,2013-02-24 21:56:00,
2013-02-24 17:01:00,61.3,33.4,29.90,West,267,1.0,5.0,35,0.00,CLR,,0.02,32.2,WeatherDisplay:10.37,2013-02-24 22:01:00,
2013-02-24 17:11:00,61.0,30.1,29.90,WNW,284,0.0,4.0,31,0.00,CLR,,0.02,29.9,WeatherDisplay:10.37,2013-02-24 22:11:00,
2013-02-24 17:16:00,60.7,30.7,29.90,West,263,1.0,5.0,32,0.00,CLR,,0.02,28.7,WeatherDisplay:10.37,2013-02-24 22:16:00,
2013-02-24 17:21:00,60.5,31.2,29.90,West,260,1.0,3.0,33,0.00,CLR,,0.02,28.7,WeatherDisplay:10.37,2013-02-24 22:21:00,
2013-02-24 17:26:00,60.3,31.0,29.90,West,263,0.0,0.0,33,0.00,CLR,,0.02,24.2,WeatherDisplay:10.37,2013-02-24 22:26:00,
2013-02-24 17:31:00,60.1,31.6,29.90,West,263,0.0,0.0,34,0.00,CLR,,0.02,21.8,WeatherDisplay:10.37,2013-02-24 22:31:00,
2013-02-24 17:36:00,59.8,29.9,29.90,WNW,301,0.0,1.0,32,0.00,CLR,,0.02,18.4,WeatherDisplay:10.37,2013-02-24 22:36:00,
2013-02-24 17:41:00,59.5,31.1,29.91,North,4,0.0,2.0,34,0.00,CLR,,0.02,16.1,WeatherDisplay:10.37,2013-02-24 22:41:00,
2013-02-24 17:46:00,59.2,30.1,29.91,North,11,0.0,2.0,33,0.00,CLR,,0.02,12.6,WeatherDisplay:10.37,2013-02-24 22:46:00,
2013-02-24 17:51:00,58.9,29.1,29.91,NNE,12,0.0,0.0,32,0.00,CLR,,0.02,10.4,WeatherDisplay:10.37,2013-02-24 22:51:00,
2013-02-24 17:56:00,58.7,30.4,29.91,NNE,12,0.0,0.0,34,0.00,CLR,,0.02,8.0,WeatherDisplay:10.37,2013-02-24 22:56:00,
2013-02-24 18:01:00,58.4,30.8,29.92,NNE,12,0.0,0.0,35,0.00,CLR,,0.02,5.8,WeatherDisplay:10.37,2013-02-24 23:01:00,
2013-02-24 18:11:00,57.8,33.0,29.92,NNE,12,0.0,0.0,39,0.00,CLR,,0.02,0.0,WeatherDisplay:10.37,2013-02-24 23:11:00,
2013-02-24 18:16:00,57.3,33.8,29.92,NNE,12,0.0,0.0,41,0.00,CLR,,0.02,0.0,WeatherDisplay:10.37,2013-02-24 23:16:00,
2013-02-24 18:21:00,56.9,35.2,29.92,NNE,12,0.0,0.0,44,0.00,CLR,,0.02,0.0,WeatherDisplay:10.37,2013-02-24 23:21:00,
2013-02-24 18:26:00,56.5,36.5,29.92,NNE,12,0.0,0.0,47,0.00,CLR,,0.02,0.0,WeatherDisplay:10.37,2013-02-24 23:26:00,
2013-02-24 18:31:00,56.0,37.1,29.92,NNE,12,0.0,0.0,49,0.00,CLR,,0.02,0.0,WeatherDisplay:10.37,2013-02-24 23:31:00,
2013-02-24 18:36:00,55.4,35.5,29.93,NNE,12,0.0,0.0,47,0.00,CLR,,0.02,0.0,WeatherDisplay:10.37,2013-02-24 23:36:00,
2013-02-24 18:41:00,54.8,36.0,29.93,NNE,12,0.0,0.0,49,0.00,CLR,,0.02,0.0,WeatherDisplay:10.37,2013-02-24 23:41:00,
2013-02-24 18:46:00,54.2,37.0,29.93,NNE,12,0.0,0.0,52,0.00,CLR,,0.02,0.0,WeatherDisplay:10.37,2013-02-24 23:46:00,
2013-02-24 18:51:00,53.8,36.6,29.93,NNE,12,0.0,0.0,52,0.00,CLR,,0.02,0.0,WeatherDisplay:10.37,2013-02-24 23:51:00,
2013-02-24 18:56:00,53.2,35.5,29.93,NNE,12,0.0,0.0,51,0.00,CLR,,0.02,0.0,WeatherDisplay:10.37,2013-02-24 23:56:00,
2013-02-24 19:01:00,52.6,35.9,29.93,NNE,12,0.0,0.0,53,0.00,CLR,,0.02,0.0,WeatherDisplay:10.37,2013-02-25 00:01:00,
2013-02-24 19:11:00,51.3,37.0,29.93,NNE,12,0.0,0.0,58,0.00,CLR,,0.02,0.0,WeatherDisplay:10.37,2013-02-25 00:11:00,
2013-02-24 19:16:00,50.7,37.3,29.94,NNE,12,0.0,0.0,60,0.00,CLR,,0.02,0.0,WeatherDisplay:10.37,2013-02-25 00:16:00,
2013-02-24 19:21:00,50.4,37.4,29.94,NNE,12,0.0,0.0,61,0.00,CLR,,0.02,0.0,WeatherDisplay:10.37,2013-02-25 00:21:00,
2013-02-24 19:26:00,49.9,37.4,29.95,NNE,12,0.0,0.0,62,0.00,CLR,,0.02,0.0,WeatherDisplay:10.37,2013-02-25 00:26:00,
2013-02-24 19:31:00,49.4,37.7,29.95,NNE,12,0.0,0.0,64,0.00,CLR,,0.02,0.0,WeatherDisplay:10.37,2013-02-25 00:31:00,
2013-02-24 19:36:00,48.9,37.6,29.95,NNE,12,0.0,0.0,65,0.00,CLR,,0.02,0.0,WeatherDisplay:10.37,2013-02-25 00:36:00,
2013-02-24 19:41:00,48.5,37.7,29.95,NNE,12,0.0,0.0,66,0.00,CLR,,0.02,0.0,WeatherDisplay:10.37,2013-02-25 00:41:00,
2013-02-24 19:46:00,48.2,37.8,29.95,NNE,12,0.0,0.0,67,0.00,CLR,,0.02,0.0,WeatherDisplay:10.37,2013-02-25 00:46:00,
2013-02-24 19:51:00,47.8,37.3,29.95,NNE,12,0.0,0.0,67,0.00,CLR,,0.02,0.0,WeatherDisplay:10.37,2013-02-25 00:51:00,
2013-02-24 19:56:00,47.4,36.6,29.96,NNE,12,0.0,0.0,66,0.00,CLR,,0.02,0.0,WeatherDisplay:10.37,2013-02-25 00:56:00,
2013-02-24 20:01:00,47.0,35.9,29.96,NNE,12,0.0,0.0,65,0.00,CLR,,0.02,0.0,WeatherDisplay:10.37,2013-02-25 01:01:00,
2013-02-24 20:11:00,46.5,36.2,29.97,NNE,12,0.0,0.0,67,0.00,CLR,,0.02,0.0,WeatherDisplay:10.37,2013-02-25 01:11:00,
2013-02-24 20:16:00,46.3,35.9,29.97,NNE,12,0.0,0.0,67,0.00,CLR,,0.02,0.0,WeatherDisplay:10.37,2013-02-25 01:16:00,
2013-02-24 20:21:00,46.1,35.7,29.97,NNE,12,0.0,0.0,67,0.00,CLR,,0.02,0.0,WeatherDisplay:10.37,2013-02-25 01:21:00,
2013-02-24 20:26:00,45.8,35.5,29.97,NNE,12,0.0,0.0,67,0.00,CLR,,0.02,0.0,WeatherDisplay:10.37,2013-02-25 01:26:00,
2013-02-24 20:31:00,45.6,36.0,29.97,NNE,13,0.0,0.0,69,0.00,CLR,,0.02,0.0,WeatherDisplay:10.37,2013-02-25 01:31:00,
2013-02-24 20:36:00,45.4,36.2,29.98,NNE,15,0.0,0.0,70,0.00,CLR,,0.02,0.0,WeatherDisplay:10.37,2013-02-25 01:36:00,
2013-02-24 20:41:00,45.1,35.9,29.98,NNE,15,0.0,0.0,70,0.00,CLR,,0.02,0.0,WeatherDisplay:10.37,2013-02-25 01:41:00,
2013-02-24 20:46:00,44.9,36.4,29.98,NNE,15,0.0,0.0,72,0.00,CLR,,0.02,0.0,WeatherDisplay:10.37,2013-02-25 01:46:00,
2013-02-24 20:51:00,44.6,36.1,29.97,NNE,15,0.0,0.0,72,0.00,CLR,,0.02,0.0,WeatherDisplay:10.37,2013-02-25 01:51:00,
2013-02-24 20:56:00,44.3,35.8,29.97,NNE,15,0.0,0.0,72,0.00,CLR,,0.02,0.0,WeatherDisplay:10.37,2013-02-25 01:56:00,
2013-02-24 21:01:00,44.2,36.8,29.98,NNE,15,0.0,0.0,75,0.00,CLR,,0.02,0.0,WeatherDisplay:10.37,2013-02-25 02:01:00,
2013-02-24 21:11:00,43.6,36.2,29.98,NNE,15,0.0,0.0,75,0.00,CLR,,0.02,0.0,WeatherDisplay:10.37,2013-02-25 02:11:00,
2013-02-24 21:16:00,43.5,36.4,29.98,NNE,15,0.0,0.0,76,0.00,CLR,,0.02,0.0,WeatherDisplay:10.37,2013-02-25 02:16:00,
2013-02-24 21:21:00,43.2,36.1,29.98,NNE,15,0.0,0.0,76,0.00,CLR,,0.02,0.0,WeatherDisplay:10.37,2013-02-25 02:21:00,
2013-02-24 21:26:00,43.1,36.0,29.98,NNE,15,0.0,0.0,76,0.00,CLR,,0.02,0.0,WeatherDisplay:10.37,2013-02-25 02:26:00,
2013-02-24 21:31:00,42.8,36.1,29.99,NNE,15,0.0,0.0,77,0.00,CLR,,0.02,0.0,WeatherDisplay:10.37,2013-02-25 02:31:00,
2013-02-24 21:36:00,42.6,35.9,29.99,NNE,15,0.0,0.0,77,0.00,CLR,,0.02,0.0,WeatherDisplay:10.37,2013-02-25 02:36:00,
2013-02-24 21:41:00,42.3,34.9,29.98,NNE,15,0.0,1.0,75,0.00,CLR,,0.02,0.0,WeatherDisplay:10.37,2013-02-25 02:41:00,
2013-02-24 21:46:00,42.2,32.8,29.98,NNE,15,0.0,0.0,69,0.00,CLR,,0.02,0.0,WeatherDisplay:10.37,2013-02-25 02:46:00,
2013-02-24 21:51:00,42.6,30.9,29.98,NNE,15,0.0,0.0,63,0.00,CLR,,0.02,0.0,WeatherDisplay:10.37,2013-02-25 02:51:00,
2013-02-24 21:56:00,43.1,32.1,29.98,NNE,15,0.0,0.0,65,0.00,CLR,,0.02,0.0,WeatherDisplay:10.37,2013-02-25 02:56:00,
2013-02-24 22:01:00,43.3,33.1,29.99,NNE,15,0.0,0.0,67,0.00,CLR,,0.02,0.0,WeatherDisplay:10.37,2013-02-25 03:01:00,
2013-02-24 22:11:00,43.6,34.1,29.99,NNE,15,0.0,0.0,69,0.00,CLR,,0.02,0.0,WeatherDisplay:10.37,2013-02-25 03:11:00,
2013-02-24 22:16:00,43.8,34.3,29.99,NNE,15,0.0,0.0,69,0.00,CLR,,0.02,0.0,WeatherDisplay:10.37,2013-02-25 03:16:00,
2013-02-24 22:21:00,43.8,34.6,29.99,NNE,15,0.0,0.0,70,0.00,CLR,,0.02,0.0,WeatherDisplay:10.37,2013-02-25 03:21:00,
2013-02-24 22:26:00,43.6,34.1,29.99,NNE,15,0.0,0.0,69,0.00,CLR,,0.02,0.0,WeatherDisplay:10.37,2013-02-25 03:26:00,
2013-02-24 22:31:00,43.6,34.1,29.99,NNE,15,0.0,0.0,69,0.00,CLR,,0.02,0.0,WeatherDisplay:10.37,2013-02-25 03:31:00,
2013-02-24 22:36:00,43.5,34.4,29.99,NNE,15,0.0,0.0,70,0.00,CLR,,0.02,0.0,WeatherDisplay:10.37,2013-02-25 03:36:00,
2013-02-24 22:41:00,43.3,34.2,30.00,NNE,15,0.0,0.0,70,0.00,CLR,,0.02,0.0,WeatherDisplay:10.37,2013-02-25 03:41:00,
2013-02-24 22:46:00,43.2,34.1,30.00,NNE,15,0.0,0.0,70,0.00,CLR,,0.02,0.0,WeatherDisplay:10.37,2013-02-25 03:46:00,
2013-02-24 22:51:00,43.1,34.0,30.00,NNE,15,0.0,0.0,70,0.00,CLR,,0.02,0.0,WeatherDisplay:10.37,2013-02-25 03:51:00,
2013-02-24 22:56:00,42.9,34.1,30.00,NNE,15,0.0,0.0,71,0.00,CLR,,0.02,0.0,WeatherDisplay:10.37,2013-02-25 03:56:00,
2013-02-24 23:01:00,42.6,34.2,30.00,NNE,15,0.0,0.0,72,0.00,CLR,,0.02,0.0,WeatherDisplay:10.37,2013-02-25 04:01:00,
2013-02-24 23:11:00,42.2,33.5,30.01,NNE,15,0.0,0.0,71,0.00,CLR,,0.02,0.0,WeatherDisplay:10.37,2013-02-25 04:11:00,
2013-02-24 23:16:00,41.9,33.5,30.01,NNE,15,0.0,0.0,72,0.00,CLR,,0.02,0.0,WeatherDisplay:10.37,2013-02-25 04:16:00,
2013-02-24 23:21:00,41.8,33.4,30.01,NNE,15,0.0,0.0,72,0.00,CLR,,0.02,0.0,WeatherDisplay:10.37,2013-02-25 04:21:00,
2013-02-24 23:26:00,41.6,33.2,30.01,NNE,15,0.0,0.0,72,0.00,CLR,,0.02,0.0,WeatherDisplay:10.37,2013-02-25 04:26:00,
2013-02-24 23:31:00,41.5,33.1,30.01,NNE,15,0.0,0.0,72,0.00,CLR,,0.02,0.0,WeatherDisplay:10.37,2013-02-25 04:31:00,
2013-02-24 23:36:00,41.2,33.2,30.01,NNE,15,0.0,0.0,73,0.00,CLR,,0.02,0.0,WeatherDisplay:10.37,2013-02-25 04:36:00,
2013-02-24 23:41:00,41.1,32.8,30.01,NNE,15,0.0,0.0,72,0.00,CLR,,0.02,0.0,WeatherDisplay:10.37,2013-02-25 04:41:00,
2013-02-24 23:46:00,40.9,32.6,30.02,NNE,15,0.0,0.0,72,0.00,CLR,,0.02,0.0,WeatherDisplay:10.37,2013-02-25 04:46:00,
2013-02-24 23:51:00,40.7,32.7,30.02,NNE,15,0.0,0.0,73,0.00,CLR,,0.02,0.0,WeatherDisplay:10.37,2013-02-25 04:51:00,
2013-02-24 23:56:00,40.5,32.5,30.02,NNE,15,0.0,0.0,73,0.00,CLR,,0.02,0.0,WeatherDisplay:10.37,2013-02-25 04:56:00,